Regional Weather Roundup
Issued by NWS Upton, NY

Current Version | Previous Version | Text Only | Print | Product List | Glossary On
Versions: 1 2 3 4 5 6 7 8 9 10 11 12 13 14 15 16 17 18 19 20 21 22 23 24 25 26 27 28
000
ASUS41 KOKX 191308
RWROKX

REGIONAL WEATHER ROUNDUP
NATIONAL WEATHER SERVICE NEW YORK NY
800 AM EST SUN FEB 19 2017

NOTE: "FAIR" INDICATES FEW OR NO CLOUDS BELOW 12,000 FEET WITH NO
SIGNIFICANT WEATHER AND/OR OBSTRUCTIONS TO VISIBILITY.

NYZ071-072-176-178-NJZ106-104-191400-
NEW YORK CITY METRO AREA

CITY           SKY/WX    TMP DP  RH WIND       PRES   REMARKS
Central Park   CLOUDY    57  35  43 W5        29.81R
Wall St Helipt NOT AVBL
LaGuardia APRT CLOUDY    56  35  45 W6        29.79R
Kennedy INTL   CLOUDY    51  37  58 SW9       29.80R
Breezy Point     N/A     46 N/A N/A W6          N/A
Newark/Liberty CLOUDY    51  35  54 SW3       29.79R
Teterboro      CLOUDY    44  35  70 CALM      29.78R
$$

NYZ177-179-078>081-191400-
LONG ISLAND NEW YORK

CITY           SKY/WX    TMP DP  RH WIND       PRES   REMARKS
Jones Beach      N/A     46 N/A N/A W7          N/A
Matinecock PT  NOT AVBL
Farmingdale    CLOUDY    45  35  68 CALM      29.78R
MacArthur/ISP  CLOUDY    46  36  68 W7        29.76R
Shirley        CLOUDY    41  36  82 CALM      29.77R
Westhampton    CLOUDY    40  34  79 CALM      29.78R
Southampton    NOT AVBL
Bridgehampton  NOT AVBL
East Hampton     N/A     45  34  64 CALM      29.75R
Montauk          N/A     48  36  63 CALM      29.76R
$$

NYZ052-065-067-191400-
HUDSON VALLEY

CITY           SKY/WX    TMP DP  RH WIND       PRES   REMARKS
White Plains   PTSUNNY   52  35  52 W7        29.76R
Newburgh       MOSUNNY   46  37  71 W9        29.78R
Montgomery     CLOUDY    32  28  85 CALM      29.77R
Poughkeepsie   CLOUDY    32  29  88 CALM      29.76R
Albany         CLOUDY    33  30  88 CALM      29.76R
$$

NJZ001-105-106-008-010-013-015-019>022-104-191400-
NEW JERSEY

CITY           SKY/WX    TMP DP  RH WIND       PRES   REMARKS
Newark/Liberty CLOUDY    51  35  54 SW3       29.79R
Teterboro      CLOUDY    44  35  70 CALM      29.78R
Caldwell       CLOUDY    40  33  76 CALM      29.80R
Somerville     CLOUDY    37  32  82 NW3       29.80R
Linden         NOT AVBL
Sussex         SUNNY     33  33 100 CALM      29.80R
Andover          N/A     32  31  96 CALM      29.81R
Trenton        CLOUDY    57  36  45 W6        29.82R
Millville      CLOUDY    52  39  61 CALM      29.85R
Atlantic City  CLOUDY    56  34  43 W3        29.84R
Wrightstown    CLOUDY    57  36  44 W6        29.80R
Toms River     CLOUDY    57  37  47 W7        29.83R
Belmar         CLOUDY    57  36  45 W10       29.81R
$$

PAZ047>061-062-071-191400-
EASTERN PENNSYLVANIA

CITY           SKY/WX    TMP DP  RH WIND       PRES   REMARKS
Philadelphia   CLOUDY    59  36  42 W13       29.84R
Allentown      CLOUDY    53  36  52 W10       29.82R
Scranton       MOSUNNY   46  35  65 SW3       29.82R
$$

CTZ002-004>006-009-010-012-RIZ004-006-007-MAZ004-011-015-191400-
SOUTHERN NEW ENGLAND
 IN CT

CITY           SKY/WX    TMP DP  RH WIND       PRES   REMARKS
Bradley INTL   PTSUNNY   39  33  79 CALM      29.74R
Hartford       MOSUNNY   35  31  85 CALM      29.75R
Danbury        SUNNY     34  30  85 CALM      29.77R
Wtrbury/Oxford MOSUNNY   45  30  57 CALM      29.76R
Bridgeport     SUNNY     44  34  67 W3        29.76R
Meriden        SUNNY     32  29  88 CALM      29.76R FOG
New Haven      PTSUNNY   34  33  96 CALM      29.76R
Chester          N/A     50  34  53 CALM      29.75R
Groton         SUNNY     34  30  85 NW3       29.74R
Wilimantic     MOSUNNY   31  28  89 NE3       29.75R

 IN RI

CITY           SKY/WX    TMP DP  RH WIND       PRES   REMARKS
Providence     PTSUNNY   46  33  60 W10       29.71R
Block Island   PTSUNNY   49  36  61 W10       29.74R
Westerly       SUNNY     48  37  65 W6        29.74R
 IN MA

CITY           SKY/WX    TMP DP  RH WIND       PRES   REMARKS
Boston         CLOUDY    43  35  73 SW9       29.69R
Worcester      PTSUNNY   43  33  68 SW8       29.69R
Westfield      MOSUNNY   31  28  89 S5        29.72R WCI  26
Provincetown   PTSUNNY   48  36  63 W14       29.69R
Nantucket      SUNNY     47  37  68 W8        29.71R
$$

ANZ330-335-338-340-345-350-353-355-191400-
COASTAL MARINE OBSERVATIONS


STATION/POSITION TIME  SKY/WX   TEMP    WIND        PRES    VSBY  WAVE
                                AIR SEA DIR/SP/G                  HT/PER
                 (UTC)          (F)     (DEG/KT/KT) (MB)    (MI)  (FT/S)
NY HARB ENTRANCE 1150            47 41  270/  6/  6 1007.5          2/ 5
20 S FIRE ISLAND 1150            44 40  260/  4/  6 1007.5          3/ 6
GREAT SOUTH BAY  NOT AVBL
23 SSW MONTAUK P 1150            46 44              1007.2          4/ 6
15 E BARNEGAT LI 1230               42                N/A           2/ 6
HUDSON CANYON    1150               51              1008.1          4/ 6
KINGS POINT      1224            52 37              1007.9
EXECUTION ROCKS  NOT AVBL
CENTRAL LI SOUND 1230            41     270/  6/  8   N/A           1/ 3
EASTERN LI SOUND NOT AVBL
ROBBINS REEF     1224            54     270/  8/  9 1008.5
$$


>>>>>>>>>>>>>>>>>>>>>>>>>>>> KEY <<<<<<<<<<<<<<<<<<<<<<<<<<<
>                                                          <
>     SKY/WX - Sky Condition/Present Weather               <
>     TMP    - Temperature in Fahrenheit                   <
>     DP     - Dew Point in Fahrenheit                     <
>     RH     - Relative Humidity in Percent                <
>     WIND   - Direction (from) and Speed in MPH           <
>     PRES   - Mean Sea Level Pressure (inches of Hg)      <
>     WCI    - Wind Chill Index                            <
>     VSB    - VISIBILITY IN MILES                         <
>     HX     - HEAT INDEX                                  <
>     TC     - TEMPERATURE IN CELSIUS                      <
>     VRB    - VARIABLE WIND DIRECTION                     <
>                                                          <
>>>>>>>>>>>>>>>>>>>>>>>>>>>> KEY <<<<<<<<<<<<<<<<<<<<<<<<<<<




USA.gov is the U.S. government's official web portal to all federal, state and local government web resources and services.